WAT850 EGPH-ESGG

Flight info

Callsign WAT850
Flight time N/A
Altitude 39000
Route GRICE P600 ASNUD DCT ALOTI DCT AMSEV DCT KUVUS N607 MAKUR
Aircraft B77L/H-SDE1E2E3FGHIJ2J3J4J5M1RWXY/LB1D1

Departure

Time 2026-04-25 09:47
Airport Edinburgh Airport (EGPH)

Arrival

Time N/A
Airport Göteborg Landvetter Airport (ESGG)
Time Latitude Longitude Altitude Speed Heading
2026-04-25 08:58 55.94875 -3.35928 113 ft 0 kts 208°
2026-04-25 09:15 55.94875 -3.35927 113 ft 0 kts 208°
2026-04-25 09:16 55.94875 -3.35928 113 ft 0 kts 208°
2026-04-25 09:16 55.94875 -3.35927 113 ft 0 kts 208°
2026-04-25 09:17 55.94875 -3.35928 113 ft 0 kts 208°
2026-04-25 09:37 55.94876 -3.35926 113 ft 1 kts 208°
2026-04-25 09:37 55.94889 -3.35913 113 ft 2 kts 221°
2026-04-25 09:38 55.94899 -3.35893 113 ft 2 kts 235°
2026-04-25 09:38 55.94907 -3.35870 112 ft 2 kts 248°
2026-04-25 09:38 55.94911 -3.35845 112 ft 2 kts 261°
2026-04-25 09:38 55.94912 -3.35819 113 ft 2 kts 273°
2026-04-25 09:39 55.94910 -3.35792 113 ft 2 kts 286°
2026-04-25 09:39 55.94906 -3.35770 113 ft 0 kts 297°
2026-04-25 09:39 55.94904 -3.35765 113 ft 0 kts 299°
2026-04-25 09:42 55.94915 -3.35799 113 ft 8 kts 303°
2026-04-25 09:43 55.94976 -3.35857 112 ft 8 kts
2026-04-25 09:43 55.95036 -3.35846 112 ft 10 kts 341°
2026-04-25 09:43 55.95083 -3.35961 112 ft 13 kts 295°
2026-04-25 09:43 55.95119 -3.36140 111 ft 17 kts 288°
2026-04-25 09:44 55.95123 -3.36298 111 ft 15 kts 249°
2026-04-25 09:44 55.95055 -3.36508 110 ft 24 kts 239°
2026-04-25 09:44 55.94963 -3.36795 109 ft 28 kts 241°
2026-04-25 09:44 55.94854 -3.37103 107 ft 28 kts 239°
2026-04-25 09:45 55.94764 -3.37364 107 ft 25 kts 238°
2026-04-25 09:45 55.94677 -3.37634 107 ft 25 kts 238°
2026-04-25 09:45 55.94571 -3.37930 109 ft 29 kts 239°
2026-04-25 09:45 55.94469 -3.38246 113 ft 29 kts 239°
2026-04-25 09:46 55.94363 -3.38554 117 ft 24 kts 240°
2026-04-25 09:46 55.94292 -3.38772 119 ft 13 kts 247°
2026-04-25 09:46 55.94321 -3.38904 120 ft 13 kts 323°
2026-04-25 09:46 55.94399 -3.38962 120 ft 12 kts 11°
2026-04-25 09:47 55.94458 -3.38854 119 ft 17 kts 60°
2026-04-25 09:47 55.94639 -3.38305 113 ft 97 kts 60°
2026-04-25 09:47 55.95147 -3.36830 162 ft 169 kts 59°
2026-04-25 09:47 55.95793 -3.35005 944 ft 184 kts 58°
2026-04-25 09:48 55.96494 -3.33137 1967 ft 181 kts 52°
2026-04-25 09:48 55.97378 -3.31473 2484 ft 193 kts 44°
2026-04-25 09:48 55.98496 -3.30002 2925 ft 210 kts 35°
2026-04-25 09:48 55.99722 -3.28351 3415 ft 228 kts 33°
2026-04-25 09:49 56.01219 -3.27260 3889 ft 243 kts
2026-04-25 09:49 56.02942 -3.27435 4398 ft 256 kts 341°
2026-04-25 09:49 56.04517 -3.28801 5175 ft 258 kts 330°
2026-04-25 09:49 56.05910 -3.30804 5814 ft 261 kts 309°
2026-04-25 09:50 56.06818 -3.33616 5948 ft 262 kts 293°
2026-04-25 09:50 56.07406 -3.36694 5958 ft 261 kts 288°
2026-04-25 09:50 56.07895 -3.39832 5961 ft 261 kts 287°
2026-04-25 09:50 56.08367 -3.42977 5957 ft 262 kts 286°
2026-04-25 09:51 56.08837 -3.46121 5944 ft 262 kts 286°
2026-04-25 09:51 56.09311 -3.49280 6003 ft 268 kts 286°
2026-04-25 09:51 56.09839 -3.52511 6758 ft 268 kts 295°
2026-04-25 09:51 56.10638 -3.55217 7623 ft 265 kts 301°
2026-04-25 09:52 56.11591 -3.58145 8471 ft 266 kts 301°
2026-04-25 09:52 56.12533 -3.61030 9233 ft 268 kts 301°